(2016 DV1) |
Classification: Apollo [NEO] SPK-ID: 3744833 |
[ hide orbit diagram ]
For accurate long-term ephemerides, please instead use our Horizons system.This orbit viewer was implemented using two-body methods, and hence should not be used for determining accurate long-term trajectories (over several years or decades) or planetary encounter circumstances.
Orbital Elements at Epoch 2459000.5 (2020-May-31.0) TDB
Reference: JPL 23 (heliocentric ecliptic J2000)
Element | Value | Uncertainty (1-sigma) | Units |
e | .6301997663807946 | 3.6023e-05 | |
a | 1.84150848439811 | 0.00014733 | au |
q | .6809902677421699 | 1.1864e-05 | au |
i | 3.37434303362538 | 0.00018614 | deg |
node | 161.6948396471567 | 7.0397e-06 | deg |
peri | 80.06040086555625 | 0.00015953 | deg |
M | 232.9057507508592 | 0.070702 | deg |
tp | 2459322.742198873170 (2021-Apr-18.24219887) | 0.21793 | TDB |
period | 912.7650722176596 2.50 | 0.10954 0.0002999 | d yr |
n | .3944059769129222 | 4.7331e-05 | deg/d |
Q | 3.002026701054049 | 0.00024017 | au |
|
| | Orbit Determination Parameters
Additional Information
|
[ show covariance matrix ]
Physical Parameter Table
Parameter |
Symbol |
Value |
Units |
Sigma |
Reference |
Notes |
absolute magnitude |
H |
24.8 |
|
n/a |
MPO377908 |
|
rotation period |
rot_per |
0.084148 |
h |
n/a |
LCDB (Rev. 2020-October); Warner et al., 2009 |
Published Reference List: [Warner, B.D. (2016) Minor Planet Bull. 43, 240-250.] [Behrend, R. (2017) Observatoire de Geneve web site, http://obswww.unige.ch/~behrend/page_cou.html] |
|
[ show close-approach data ]
|